{"data":{"norad_id":60550,"epoch":"2026-05-25T02:46:05.445120Z","epoch_age_seconds":58307,"freshness":"FRESH","line1":"1 60550U 24149CL  26145.11534080  .00001168  00000+0  10393-3 0  9990","line2":"2 60550  97.6758 221.3993 0007308 140.6289 219.5466 14.97963137 96612","mean_motion":14.97963137,"eccentricity":0.0007308,"inclination_deg":97.6758,"raan_deg":221.3993,"arg_perigee_deg":140.6289,"mean_anomaly_deg":219.5466,"bstar":0.00010393,"rev_number":9661,"period_min":96.130536488629,"perigee_km":568.11058581986,"apogee_km":578.27064626347,"semimajor_km":6951.3276160417,"source":"CELESTRAK","updated_at":"2026-05-25T13:38:02.151952Z"}}